Location: Newark
(44.2003°N, 3.2583°E)
Time: 07:12:25
(UTC+00:00)

S-56A Canister/Altair - Visible Passes

Search period start: 20 October 2019 00:00
Search period end: 30 October 2019 00:00
Orbit: 633 x 2499 km, 38.9° (Epoch: 18 October)

Date Brightness Start Highest point End Pass type
(mag) Time Alt. Az. Time Alt. Az. Time Alt. Az.
20 Oct 9.8 02:15:22 29° ESE 02:15:22 29° ESE 02:20:40 10° E visible
20 Oct 9.0 04:12:48 32° WSW 04:16:38 62° S 04:27:28 10° E visible
21 Oct 10.4 01:44:31 18° ESE 01:44:31 18° ESE 01:47:06 10° E visible
21 Oct 8.6 03:41:57 48° SW 03:43:47 59° S 03:53:48 10° E visible
22 Oct 8.6 03:11:06 56° SSE 03:11:06 56° SSE 03:20:13 10° E visible
22 Oct 9.3 05:08:32 14° W 05:15:18 59° S 05:26:45 10° ESE visible
23 Oct 9.2 02:40:14 42° ESE 02:40:14 42° ESE 02:46:41 10° E visible
23 Oct 9.0 04:37:40 25° WSW 04:42:21 59° S 04:53:07 10° ESE visible
24 Oct 9.9 02:09:23 26° ESE 02:09:23 26° ESE 02:13:14 10° E visible
24 Oct 8.7 04:06:49 40° WSW 04:09:28 59° S 04:19:30 10° ESE visible
25 Oct 10.6 01:38:33 15° E 01:38:33 15° E 01:39:52 10° E visible
25 Oct 8.4 03:35:59 56° SSW 03:36:39 58° S 03:45:57 10° ESE visible
25 Oct 9.6 05:33:42 10° W 05:40:58 43° SSW 05:51:34 10° SE visible
26 Oct 8.8 03:05:09 51° SE 03:05:09 51° SE 03:12:29 10° ESE visible
26 Oct 9.4 05:02:35 17° W 05:08:03 44° SSW 05:18:06 10° SE visible
27 Oct 9.5 02:34:21 33° ESE 02:34:21 33° ESE 02:39:04 10° ESE visible
27 Oct 9.1 04:31:47 28° WSW 04:35:12 45° SSW 04:44:40 10° SE visible
28 Oct 10.3 02:03:34 19° ESE 02:03:34 19° ESE 02:05:44 10° E visible
28 Oct 8.7 04:01:00 41° SW 04:02:23 46° SSW 04:11:14 10° SE visible
29 Oct 8.8 03:30:14 46° S 03:30:14 46° S 03:37:53 10° ESE visible
29 Oct 10.0 05:27:44 10° W 05:33:41 26° SSW 05:41:40 10° SSE visible
